POLYTECH-UNIVERSE 3 (R*)

Last updated on Tue Sep 22 2026 00:03:27 GMT+0000 (Coordinated Universal Time)

1 57191U 23091AB 26264.55046389 .00003048 00000+0 14490-3 0 9993 2 57191 97.4948 321.7104 0016040 148.7740 211.4451 15.19862206178583
UTC large
Height (km)
Speed (km/s)
/
Latitude / Longitude
Inclination (degrees)
Orbital Period (minutes)
Azimuth
Elevation
Range (km)
Doppler Factor

Next 0 passes for location: London (51.5072 / 0.1276)

No passes found over London.
POLYTECH-UNIVERSE 3 (R*)